Year,Month,Day,Hour,Minute,Value (Times are PST for temperature in C)
2010,07,16,00,00,13.40
2010,07,16,00,01,13.40
2010,07,16,00,02,13.30
2010,07,16,00,03,13.30
2010,07,16,00,04,13.30
2010,07,16,00,05,13.30
2010,07,16,00,06,13.20
2010,07,16,00,07,13.20
2010,07,16,00,08,13.20
2010,07,16,00,09,13.10
2010,07,16,00,10,13.10
2010,07,16,00,11,13.20
2010,07,16,00,12,13.10
2010,07,16,00,13,13.10
2010,07,16,00,14,13.10
2010,07,16,00,15,13.10
2010,07,16,00,16,13.10
2010,07,16,00,17,13.10
2010,07,16,00,18,13.10
2010,07,16,00,19,13.10
2010,07,16,00,20,13.10
2010,07,16,00,21,13.10
2010,07,16,00,22,13.10
2010,07,16,00,23,13.20
2010,07,16,00,24,13.20
2010,07,16,00,25,13.20
2010,07,16,00,26,13.20
2010,07,16,00,27,13.20
2010,07,16,00,28,13.20
2010,07,16,00,29,13.20
2010,07,16,00,30,13.20
2010,07,16,00,31,13.20
2010,07,16,00,32,13.20
2010,07,16,00,33,13.20
2010,07,16,00,34,13.20
2010,07,16,00,35,13.20
2010,07,16,00,36,13.20
2010,07,16,00,37,13.10
2010,07,16,00,38,13.10
2010,07,16,00,39,13.10
2010,07,16,00,40,13.10
2010,07,16,00,41,13.10
2010,07,16,00,42,13.10
2010,07,16,00,43,13.00
2010,07,16,00,44,13.00
2010,07,16,00,45,13.00
2010,07,16,00,46,12.90
2010,07,16,00,47,12.90
2010,07,16,00,48,12.90
2010,07,16,00,49,12.90
2010,07,16,00,50,12.90
2010,07,16,00,51,12.80
2010,07,16,00,52,12.90
2010,07,16,00,53,12.90
2010,07,16,00,54,12.90
2010,07,16,00,55,12.80
2010,07,16,00,56,12.80
2010,07,16,00,57,12.80
2010,07,16,00,58,12.80
2010,07,16,00,59,12.80
2010,07,16,01,00,12.80
2010,07,16,01,01,12.80
2010,07,16,01,02,12.80
2010,07,16,01,03,12.80
2010,07,16,01,04,12.70
2010,07,16,01,05,12.70
2010,07,16,01,06,12.70
2010,07,16,01,07,12.70
2010,07,16,01,08,12.60
2010,07,16,01,09,12.60
2010,07,16,01,10,12.60
2010,07,16,01,11,12.60
2010,07,16,01,12,12.60
2010,07,16,01,13,12.60
2010,07,16,01,14,12.60
2010,07,16,01,15,12.60
2010,07,16,01,16,12.60
2010,07,16,01,17,12.60
2010,07,16,01,18,12.60
2010,07,16,01,19,12.60
2010,07,16,01,20,12.50
2010,07,16,01,21,12.50
2010,07,16,01,22,12.50
2010,07,16,01,23,12.50
2010,07,16,01,24,12.40
2010,07,16,01,25,12.40
2010,07,16,01,26,12.40
2010,07,16,01,27,12.40
2010,07,16,01,28,12.40
2010,07,16,01,29,12.40
2010,07,16,01,30,12.30
2010,07,16,01,31,12.30
2010,07,16,01,32,12.30
2010,07,16,01,33,12.30
2010,07,16,01,34,12.30
2010,07,16,01,35,12.20
2010,07,16,01,36,12.20
2010,07,16,01,37,12.20
2010,07,16,01,38,12.20
2010,07,16,01,39,12.20
2010,07,16,01,40,12.20
2010,07,16,01,41,12.20
2010,07,16,01,42,12.20
2010,07,16,01,43,12.20
2010,07,16,01,44,12.10
2010,07,16,01,45,12.10
2010,07,16,01,46,12.10
2010,07,16,01,47,12.10
2010,07,16,01,48,12.10
2010,07,16,01,49,12.10
2010,07,16,01,50,12.00
2010,07,16,01,51,12.00
2010,07,16,01,52,12.00
2010,07,16,01,53,11.90
2010,07,16,01,54,11.90
2010,07,16,01,55,11.90
2010,07,16,01,56,11.80
2010,07,16,01,57,11.80
2010,07,16,01,58,11.80
2010,07,16,01,59,11.80
2010,07,16,02,00,11.80
2010,07,16,02,01,11.70
2010,07,16,02,02,11.70
2010,07,16,02,03,11.70
2010,07,16,02,04,11.60
2010,07,16,02,05,11.60
2010,07,16,02,06,11.60
2010,07,16,02,07,11.60
2010,07,16,02,08,11.60
2010,07,16,02,09,11.50
2010,07,16,02,10,11.50
2010,07,16,02,11,11.50
2010,07,16,02,12,11.40
2010,07,16,02,13,11.40
2010,07,16,02,14,11.40
2010,07,16,02,15,11.40
2010,07,16,02,16,11.40
2010,07,16,02,17,11.40
2010,07,16,02,18,11.30
2010,07,16,02,19,11.30
2010,07,16,02,20,11.30
2010,07,16,02,21,11.30
2010,07,16,02,22,11.30
2010,07,16,02,23,11.30
2010,07,16,02,24,11.20
2010,07,16,02,25,11.20
2010,07,16,02,26,11.20
2010,07,16,02,27,11.20
2010,07,16,02,28,11.20
2010,07,16,02,29,11.20
2010,07,16,02,30,11.20
2010,07,16,02,31,11.10
2010,07,16,02,32,11.10
2010,07,16,02,33,11.10
2010,07,16,02,34,11.10
2010,07,16,02,35,11.00
2010,07,16,02,36,11.00
2010,07,16,02,37,11.00
2010,07,16,02,38,10.90
2010,07,16,02,39,10.90
2010,07,16,02,40,10.90
2010,07,16,02,41,10.90
2010,07,16,02,42,10.80
2010,07,16,02,43,10.80
2010,07,16,02,44,10.80
2010,07,16,02,45,10.80
2010,07,16,02,46,10.80
2010,07,16,02,47,10.80
2010,07,16,02,48,10.80
2010,07,16,02,49,10.80
2010,07,16,02,50,10.70
2010,07,16,02,51,10.70
2010,07,16,02,52,10.70
2010,07,16,02,53,10.70
2010,07,16,02,54,10.70
2010,07,16,02,55,10.70
2010,07,16,02,56,10.70
2010,07,16,02,57,10.70
2010,07,16,02,58,10.70
2010,07,16,02,59,10.70
2010,07,16,03,00,10.70
2010,07,16,03,01,10.70
2010,07,16,03,02,10.70
2010,07,16,03,03,10.70
2010,07,16,03,04,10.70
2010,07,16,03,05,10.70
2010,07,16,03,06,10.70
2010,07,16,03,07,10.70
2010,07,16,03,08,10.60
2010,07,16,03,09,10.60
2010,07,16,03,10,10.60
2010,07,16,03,11,10.60
2010,07,16,03,12,10.60
2010,07,16,03,13,10.60
2010,07,16,03,14,10.60
2010,07,16,03,15,10.60
2010,07,16,03,16,10.60
2010,07,16,03,17,10.60
2010,07,16,03,18,10.60
2010,07,16,03,19,10.60
2010,07,16,03,20,10.60
2010,07,16,03,21,10.50
2010,07,16,03,22,10.50
2010,07,16,03,23,10.50
2010,07,16,03,24,10.50
2010,07,16,03,25,10.40
2010,07,16,03,26,10.40
2010,07,16,03,27,10.40
2010,07,16,03,28,10.40
2010,07,16,03,29,10.40
2010,07,16,03,30,10.40
2010,07,16,03,31,10.30
2010,07,16,03,32,10.30
2010,07,16,03,33,10.30
2010,07,16,03,34,10.30
2010,07,16,03,35,10.30
2010,07,16,03,36,10.30
2010,07,16,03,37,10.30
2010,07,16,03,38,10.30
2010,07,16,03,39,10.30
2010,07,16,03,40,10.30
2010,07,16,03,41,10.30
2010,07,16,03,42,10.30
2010,07,16,03,43,10.30
2010,07,16,03,44,10.30
2010,07,16,03,45,10.30
2010,07,16,03,46,10.30
2010,07,16,03,47,10.20
2010,07,16,03,48,10.20
2010,07,16,03,49,10.20
2010,07,16,03,50,10.20
2010,07,16,03,51,10.20
2010,07,16,03,52,10.20
2010,07,16,03,53,10.20
2010,07,16,03,54,10.20
2010,07,16,03,55,10.20
2010,07,16,03,56,10.20
2010,07,16,03,57,10.20
2010,07,16,03,58,10.20
2010,07,16,03,59,10.20
2010,07,16,04,00,10.20
2010,07,16,04,01,10.20
2010,07,16,04,02,10.10
2010,07,16,04,03,10.10
2010,07,16,04,04,10.10
2010,07,16,04,05,10.10
2010,07,16,04,06,10.10
2010,07,16,04,07,10.10
2010,07,16,04,08,10.10
2010,07,16,04,09,10.10
2010,07,16,04,10,10.10
2010,07,16,04,11,10.00
2010,07,16,04,12,10.00
2010,07,16,04,13,10.00
2010,07,16,04,14,9.90
2010,07,16,04,15,9.90
2010,07,16,04,16,9.90
2010,07,16,04,17,9.90
2010,07,16,04,18,9.90
2010,07,16,04,19,9.90
2010,07,16,04,20,9.90
2010,07,16,04,21,9.90
2010,07,16,04,22,9.90
2010,07,16,04,23,9.80
2010,07,16,04,24,9.80
2010,07,16,04,25,9.80
2010,07,16,04,26,9.80
2010,07,16,04,27,9.80
2010,07,16,04,28,9.80
2010,07,16,04,29,9.80
2010,07,16,04,30,9.80
2010,07,16,04,31,9.80
2010,07,16,04,32,9.80
2010,07,16,04,33,9.80
2010,07,16,04,34,9.80
2010,07,16,04,35,9.70
2010,07,16,04,36,9.70
2010,07,16,04,37,9.70
2010,07,16,04,38,9.70
2010,07,16,04,39,9.70
2010,07,16,04,40,9.70
2010,07,16,04,41,9.70
2010,07,16,04,42,9.70
2010,07,16,04,43,9.70
2010,07,16,04,44,9.70
2010,07,16,04,45,9.60
2010,07,16,04,46,9.60
2010,07,16,04,47,9.60
2010,07,16,04,48,9.60
2010,07,16,04,49,9.60
2010,07,16,04,50,9.60
2010,07,16,04,51,9.60
2010,07,16,04,52,9.50
2010,07,16,04,53,9.50
2010,07,16,04,54,9.50
2010,07,16,04,55,9.50
2010,07,16,04,56,9.50
2010,07,16,04,57,9.50
2010,07,16,04,58,9.40
2010,07,16,04,59,9.40
2010,07,16,05,00,9.40
2010,07,16,05,01,9.40
2010,07,16,05,02,9.40
2010,07,16,05,03,9.40
2010,07,16,05,04,9.40
2010,07,16,05,05,9.40
2010,07,16,05,06,9.40
2010,07,16,05,07,9.30
2010,07,16,05,08,9.30
2010,07,16,05,09,9.30
2010,07,16,05,10,9.30
2010,07,16,05,11,9.30
2010,07,16,05,12,9.30
2010,07,16,05,13,9.30
2010,07,16,05,14,9.30
2010,07,16,05,15,9.30
2010,07,16,05,16,9.20
2010,07,16,05,17,9.20
2010,07,16,05,18,9.20
2010,07,16,05,19,9.20
2010,07,16,05,20,9.20
2010,07,16,05,21,9.20
2010,07,16,05,22,9.20
2010,07,16,05,23,9.20
2010,07,16,05,24,9.20
2010,07,16,05,25,9.20
2010,07,16,05,26,9.20
2010,07,16,05,27,9.20
2010,07,16,05,28,9.20
2010,07,16,05,29,9.20
2010,07,16,05,30,9.10
2010,07,16,05,31,9.10
2010,07,16,05,32,9.10
2010,07,16,05,33,9.10
2010,07,16,05,34,9.10
2010,07,16,05,35,9.10
2010,07,16,05,36,9.10
2010,07,16,05,37,9.10
2010,07,16,05,38,9.10
2010,07,16,05,39,9.10
2010,07,16,05,40,9.10
2010,07,16,05,41,9.10
2010,07,16,05,42,9.10
2010,07,16,05,43,9.10
2010,07,16,05,44,9.10
2010,07,16,05,45,9.00
2010,07,16,05,46,9.00
2010,07,16,05,47,9.00
2010,07,16,05,48,9.00
2010,07,16,05,49,9.00
2010,07,16,05,50,9.00
2010,07,16,05,51,9.00
2010,07,16,05,52,8.90
2010,07,16,05,53,8.90
2010,07,16,05,54,8.90
2010,07,16,05,55,8.90
2010,07,16,05,56,8.90
2010,07,16,05,57,8.90
2010,07,16,05,58,8.90
2010,07,16,05,59,8.80
2010,07,16,06,00,8.80
2010,07,16,06,01,8.80
2010,07,16,06,02,8.80
2010,07,16,06,03,8.80
2010,07,16,06,04,8.90
2010,07,16,06,05,8.90
2010,07,16,06,06,8.90
2010,07,16,06,07,9.00
2010,07,16,06,08,9.00
2010,07,16,06,09,9.10
2010,07,16,06,10,9.10
2010,07,16,06,11,9.10
2010,07,16,06,12,9.10
2010,07,16,06,13,9.10
2010,07,16,06,14,9.10
2010,07,16,06,15,9.10
2010,07,16,06,16,9.10
2010,07,16,06,17,9.10
2010,07,16,06,18,9.10
2010,07,16,06,19,9.10
2010,07,16,06,20,9.10
2010,07,16,06,21,9.10
2010,07,16,06,22,9.10
2010,07,16,06,23,9.10
2010,07,16,06,24,9.10
2010,07,16,06,25,9.20
2010,07,16,06,26,9.20
2010,07,16,06,27,9.20
2010,07,16,06,28,9.20
2010,07,16,06,29,9.20
2010,07,16,06,30,9.30
2010,07,16,06,31,9.30
2010,07,16,06,32,9.30
2010,07,16,06,33,9.30
2010,07,16,06,34,9.30
2010,07,16,06,35,9.30
2010,07,16,06,36,9.30
2010,07,16,06,37,9.40
2010,07,16,06,38,9.40
2010,07,16,06,39,9.40
2010,07,16,06,40,9.50
2010,07,16,06,41,9.50
2010,07,16,06,42,9.50
2010,07,16,06,43,9.60
2010,07,16,06,44,9.60
2010,07,16,06,45,9.60
2010,07,16,06,46,9.70
2010,07,16,06,47,9.70
2010,07,16,06,48,9.70
2010,07,16,06,49,9.80
2010,07,16,06,50,9.80
2010,07,16,06,51,9.90
2010,07,16,06,52,10.00
2010,07,16,06,53,10.10
2010,07,16,06,54,10.10
2010,07,16,06,55,10.20
2010,07,16,06,56,10.20
2010,07,16,06,57,10.30
2010,07,16,06,58,10.30
2010,07,16,06,59,10.30
2010,07,16,07,00,10.40
2010,07,16,07,01,10.40
2010,07,16,07,02,10.40
2010,07,16,07,03,10.50
2010,07,16,07,04,10.50
2010,07,16,07,05,10.60
2010,07,16,07,06,10.60
2010,07,16,07,07,10.70
2010,07,16,07,08,10.80
2010,07,16,07,09,10.80
2010,07,16,07,10,10.80
2010,07,16,07,11,10.90
2010,07,16,07,12,11.00
2010,07,16,07,13,11.10
2010,07,16,07,14,11.10
2010,07,16,07,15,11.20
2010,07,16,07,16,11.30
2010,07,16,07,17,11.30
2010,07,16,07,18,11.30
2010,07,16,07,19,11.40
2010,07,16,07,20,11.50
2010,07,16,07,21,11.50
2010,07,16,07,22,11.60
2010,07,16,07,23,11.70
2010,07,16,07,24,11.70
2010,07,16,07,25,11.80
2010,07,16,07,26,11.90
2010,07,16,07,27,12.00
2010,07,16,07,28,12.00
2010,07,16,07,29,12.10
2010,07,16,07,30,12.30
2010,07,16,07,31,12.40
2010,07,16,07,32,12.60
2010,07,16,07,33,12.70
2010,07,16,07,34,12.80
2010,07,16,07,35,12.90
2010,07,16,07,36,13.00
2010,07,16,07,37,13.10
2010,07,16,07,38,13.20
2010,07,16,07,39,13.30
2010,07,16,07,40,13.50
2010,07,16,07,41,13.60
2010,07,16,07,42,13.70
2010,07,16,07,43,13.80
2010,07,16,07,44,13.90
2010,07,16,07,45,14.00
2010,07,16,07,46,14.20
2010,07,16,07,47,14.30
2010,07,16,07,48,14.40
2010,07,16,07,49,14.50
2010,07,16,07,50,14.60
2010,07,16,07,51,14.60
2010,07,16,07,52,14.70
2010,07,16,07,53,14.80
2010,07,16,07,54,15.00
2010,07,16,07,55,15.00
2010,07,16,07,56,15.00
2010,07,16,07,57,15.00
2010,07,16,07,58,15.00
2010,07,16,07,59,15.00
2010,07,16,08,00,15.00
2010,07,16,08,01,15.00
2010,07,16,08,02,15.00
2010,07,16,08,03,15.00
2010,07,16,08,04,15.00
2010,07,16,08,05,15.00
2010,07,16,08,06,15.00
2010,07,16,08,07,15.10
2010,07,16,08,08,15.20
2010,07,16,08,09,15.30
2010,07,16,08,10,15.30
2010,07,16,08,11,15.40
2010,07,16,08,12,15.40
2010,07,16,08,13,15.50
2010,07,16,08,14,15.50
2010,07,16,08,15,15.60
2010,07,16,08,16,15.60
2010,07,16,08,17,15.60
2010,07,16,08,18,15.60
2010,07,16,08,19,15.60
2010,07,16,08,20,15.70
2010,07,16,08,21,15.70
2010,07,16,08,22,15.70
2010,07,16,08,23,15.80
2010,07,16,08,24,15.80
2010,07,16,08,25,15.80
2010,07,16,08,26,15.90
2010,07,16,08,27,15.90
2010,07,16,08,28,15.90
2010,07,16,08,29,16.00
2010,07,16,08,30,16.10
2010,07,16,08,31,16.10
2010,07,16,08,32,16.10
2010,07,16,08,33,16.20
2010,07,16,08,34,16.20
2010,07,16,08,35,16.30
2010,07,16,08,36,16.40
2010,07,16,08,37,16.40
2010,07,16,08,38,16.50
2010,07,16,08,39,16.50
2010,07,16,08,40,16.50
2010,07,16,08,41,16.50
2010,07,16,08,42,16.50
2010,07,16,08,43,16.60
2010,07,16,08,44,16.60
2010,07,16,08,45,16.60
2010,07,16,08,46,16.60
2010,07,16,08,47,16.70
2010,07,16,08,48,16.70
2010,07,16,08,49,16.60
2010,07,16,08,50,16.50
2010,07,16,08,51,16.40
2010,07,16,08,52,16.30
2010,07,16,08,53,16.20
2010,07,16,08,54,16.20
2010,07,16,08,55,16.10
2010,07,16,08,56,16.00
2010,07,16,08,57,16.00
2010,07,16,08,58,15.90
2010,07,16,08,59,15.90
2010,07,16,09,00,15.90
2010,07,16,09,01,15.90
2010,07,16,09,02,15.90
2010,07,16,09,03,15.90
2010,07,16,09,04,16.00
2010,07,16,09,05,16.10
2010,07,16,09,06,16.20
2010,07,16,09,07,16.30
2010,07,16,09,08,16.40
2010,07,16,09,09,16.60
2010,07,16,09,10,16.70
2010,07,16,09,11,16.70
2010,07,16,09,12,16.70
2010,07,16,09,13,16.70
2010,07,16,09,14,16.70
2010,07,16,09,15,16.70
2010,07,16,09,16,16.60
2010,07,16,09,17,16.50
2010,07,16,09,18,16.40
2010,07,16,09,19,16.40
2010,07,16,09,20,16.40
2010,07,16,09,21,16.50
2010,07,16,09,22,16.60
2010,07,16,09,23,16.70
2010,07,16,09,24,16.70
2010,07,16,09,25,16.70
2010,07,16,09,26,16.70
2010,07,16,09,27,16.70
2010,07,16,09,28,16.70
2010,07,16,09,29,16.70
2010,07,16,09,30,16.80
2010,07,16,09,31,16.90
2010,07,16,09,32,16.90
2010,07,16,09,33,17.00
2010,07,16,09,34,17.10
2010,07,16,09,35,17.00
2010,07,16,09,36,17.10
2010,07,16,09,37,17.10
2010,07,16,09,38,17.20
2010,07,16,09,39,17.30
2010,07,16,09,40,17.30
2010,07,16,09,41,17.30
2010,07,16,09,42,17.40
2010,07,16,09,43,17.40
2010,07,16,09,44,17.30
2010,07,16,09,45,17.20
2010,07,16,09,46,17.20
2010,07,16,09,47,17.20
2010,07,16,09,48,17.30
2010,07,16,09,49,17.40
2010,07,16,09,50,17.40
2010,07,16,09,51,17.40
2010,07,16,09,52,17.20
2010,07,16,09,53,17.10
2010,07,16,09,54,17.10
2010,07,16,09,55,17.10
2010,07,16,09,56,17.10
2010,07,16,09,57,17.10
2010,07,16,09,58,17.10
2010,07,16,09,59,17.30
2010,07,16,10,00,17.40
2010,07,16,10,01,17.50
2010,07,16,10,02,17.60
2010,07,16,10,03,17.70
2010,07,16,10,04,17.70
2010,07,16,10,05,17.70
2010,07,16,10,06,17.70
2010,07,16,10,07,17.60
2010,07,16,10,08,17.60
2010,07,16,10,09,17.60
2010,07,16,10,10,17.70
2010,07,16,10,11,17.80
2010,07,16,10,12,17.90
2010,07,16,10,13,17.90
2010,07,16,10,14,18.10
2010,07,16,10,15,18.00
2010,07,16,10,16,17.90
2010,07,16,10,17,17.60
2010,07,16,10,18,17.50
2010,07,16,10,19,17.40
2010,07,16,10,20,17.40
2010,07,16,10,21,17.40
2010,07,16,10,22,17.40
2010,07,16,10,23,17.50
2010,07,16,10,24,17.60
2010,07,16,10,25,17.70
2010,07,16,10,26,17.80
2010,07,16,10,27,17.90
2010,07,16,10,28,18.00
2010,07,16,10,29,18.10
2010,07,16,10,30,18.20
2010,07,16,10,31,18.30
2010,07,16,10,32,18.40
2010,07,16,10,33,18.30
2010,07,16,10,34,18.30
2010,07,16,10,35,18.30
2010,07,16,10,36,18.40
2010,07,16,10,37,18.40
2010,07,16,10,38,18.50
2010,07,16,10,39,18.70
2010,07,16,10,40,18.80
2010,07,16,10,41,18.70
2010,07,16,10,42,18.60
2010,07,16,10,43,18.50
2010,07,16,10,44,18.40
2010,07,16,10,45,18.40
2010,07,16,10,46,18.40
2010,07,16,10,47,18.40
2010,07,16,10,48,18.40
2010,07,16,10,49,18.50
2010,07,16,10,50,18.60
2010,07,16,10,51,18.70
2010,07,16,10,52,18.70
2010,07,16,10,53,18.70
2010,07,16,10,54,18.50
2010,07,16,10,55,18.50
2010,07,16,10,56,18.50
2010,07,16,10,57,18.50
2010,07,16,10,58,18.50
2010,07,16,10,59,18.50
2010,07,16,11,00,18.60
2010,07,16,11,01,18.70
2010,07,16,11,02,18.70
2010,07,16,11,03,18.90
2010,07,16,11,04,19.00
2010,07,16,11,05,19.10
2010,07,16,11,06,19.00
2010,07,16,11,07,18.80
2010,07,16,11,08,18.80
2010,07,16,11,09,18.80
2010,07,16,11,10,18.80
2010,07,16,11,11,18.80
2010,07,16,11,12,18.80
2010,07,16,11,13,18.80
2010,07,16,11,14,18.70
2010,07,16,11,15,18.70
2010,07,16,11,16,18.60
2010,07,16,11,17,18.50
2010,07,16,11,18,18.40
2010,07,16,11,19,18.40
2010,07,16,11,20,18.30
2010,07,16,11,21,18.20
2010,07,16,11,22,18.00
2010,07,16,11,23,17.90
2010,07,16,11,24,17.90
2010,07,16,11,25,17.90
2010,07,16,11,26,18.00
2010,07,16,11,27,18.00
2010,07,16,11,28,18.10
2010,07,16,11,29,18.30
2010,07,16,11,30,18.30
2010,07,16,11,31,18.30
2010,07,16,11,32,18.30
2010,07,16,11,33,18.30
2010,07,16,11,34,18.40
2010,07,16,11,35,18.40
2010,07,16,11,36,18.40
2010,07,16,11,37,18.30
2010,07,16,11,38,18.10
2010,07,16,11,39,18.00
2010,07,16,11,40,18.00
2010,07,16,11,41,18.00
2010,07,16,11,42,18.00
2010,07,16,11,43,18.00
2010,07,16,11,44,18.10
2010,07,16,11,45,18.10
2010,07,16,11,46,18.10
2010,07,16,11,47,18.10
2010,07,16,11,48,18.10
2010,07,16,11,49,18.10
2010,07,16,11,50,18.10
2010,07,16,11,51,18.10
2010,07,16,11,52,18.00
2010,07,16,11,53,18.00
2010,07,16,11,54,18.00
2010,07,16,11,55,18.00
2010,07,16,11,56,18.10
2010,07,16,11,57,18.10
2010,07,16,11,58,18.20
2010,07,16,11,59,18.10
2010,07,16,12,00,18.10
2010,07,16,12,01,18.00
2010,07,16,12,02,17.90
2010,07,16,12,03,17.80
2010,07,16,12,04,17.70
2010,07,16,12,05,17.60
2010,07,16,12,06,17.70
2010,07,16,12,07,17.80
2010,07,16,12,08,17.90
2010,07,16,12,09,18.00
2010,07,16,12,10,18.10
2010,07,16,12,11,18.10
2010,07,16,12,12,18.20
2010,07,16,12,13,18.20
2010,07,16,12,14,18.20
2010,07,16,12,15,18.20
2010,07,16,12,16,18.20
2010,07,16,12,17,18.20
2010,07,16,12,18,18.20
2010,07,16,12,19,18.20
2010,07,16,12,20,18.20
2010,07,16,12,21,18.20
2010,07,16,12,22,18.10
2010,07,16,12,23,18.10
2010,07,16,12,24,18.10
2010,07,16,12,25,18.10
2010,07,16,12,26,18.20
2010,07,16,12,27,18.20
2010,07,16,12,28,18.10
2010,07,16,12,29,18.10
2010,07,16,12,30,18.10
2010,07,16,12,31,18.10
2010,07,16,12,32,18.00
2010,07,16,12,33,18.00
2010,07,16,12,34,17.90
2010,07,16,12,35,17.80
2010,07,16,12,36,17.70
2010,07,16,12,37,17.70
2010,07,16,12,38,17.70
2010,07,16,12,39,17.60
2010,07,16,12,40,17.60
2010,07,16,12,41,17.70
2010,07,16,12,42,17.70
2010,07,16,12,43,17.80
2010,07,16,12,44,18.00
2010,07,16,12,45,18.10
2010,07,16,12,46,18.20
2010,07,16,12,47,18.30
2010,07,16,12,48,18.30
2010,07,16,12,49,18.30
2010,07,16,12,50,18.30
2010,07,16,12,51,18.30
2010,07,16,12,52,18.30
2010,07,16,12,53,18.30
2010,07,16,12,54,18.30
2010,07,16,12,55,18.30
2010,07,16,12,56,18.30
2010,07,16,12,57,18.30
2010,07,16,12,58,18.30
2010,07,16,12,59,18.30
2010,07,16,13,00,18.30
2010,07,16,13,01,18.30
2010,07,16,13,02,18.20
2010,07,16,13,03,18.10
2010,07,16,13,04,18.10
2010,07,16,13,05,18.10
2010,07,16,13,06,18.10
2010,07,16,13,07,18.10
2010,07,16,13,08,18.10
2010,07,16,13,09,18.10
2010,07,16,13,10,18.00
2010,07,16,13,11,17.90
2010,07,16,13,12,17.90
2010,07,16,13,13,17.80
2010,07,16,13,14,17.70
2010,07,16,13,15,17.70
2010,07,16,13,16,17.70
2010,07,16,13,17,17.70
2010,07,16,13,18,17.70
2010,07,16,13,19,17.70
2010,07,16,13,20,17.70
2010,07,16,13,21,17.80
2010,07,16,13,22,17.80
2010,07,16,13,23,17.90
2010,07,16,13,24,18.00
2010,07,16,13,25,18.10
2010,07,16,13,26,18.10
2010,07,16,13,27,17.90
2010,07,16,13,28,17.80
2010,07,16,13,29,17.70
2010,07,16,13,30,17.70
2010,07,16,13,31,17.60
2010,07,16,13,32,17.60
2010,07,16,13,33,17.60
2010,07,16,13,34,17.50
2010,07,16,13,35,17.40
2010,07,16,13,36,17.40
2010,07,16,13,37,17.20
2010,07,16,13,38,17.20
2010,07,16,13,39,17.00
2010,07,16,13,40,16.90
2010,07,16,13,41,16.80
2010,07,16,13,42,16.70
2010,07,16,13,43,16.70
2010,07,16,13,44,16.80
2010,07,16,13,45,16.90
2010,07,16,13,46,16.80
2010,07,16,13,47,16.80
2010,07,16,13,48,16.80
2010,07,16,13,49,16.80
2010,07,16,13,50,16.80
2010,07,16,13,51,16.80
2010,07,16,13,52,17.00
2010,07,16,13,53,17.40
2010,07,16,13,54,17.40
2010,07,16,13,55,17.50
2010,07,16,13,56,17.50
2010,07,16,13,57,17.70
2010,07,16,13,58,17.60
2010,07,16,13,59,17.50
2010,07,16,14,00,17.40
2010,07,16,14,01,17.20
2010,07,16,14,02,16.90
2010,07,16,14,03,16.70
2010,07,16,14,04,16.50
2010,07,16,14,05,16.50
2010,07,16,14,06,16.50
2010,07,16,14,07,16.40
2010,07,16,14,08,16.30
2010,07,16,14,09,16.30
2010,07,16,14,10,16.30
2010,07,16,14,11,16.30
2010,07,16,14,12,16.40
2010,07,16,14,13,16.40
2010,07,16,14,14,16.40
2010,07,16,14,15,16.50
2010,07,16,14,16,16.70
2010,07,16,14,17,16.80
2010,07,16,14,18,16.80
2010,07,16,14,19,16.70
2010,07,16,14,20,16.60
2010,07,16,14,21,16.70
2010,07,16,14,22,16.60
2010,07,16,14,23,16.50
2010,07,16,14,24,16.40
2010,07,16,14,25,16.40
2010,07,16,14,26,16.30
2010,07,16,14,27,16.30
2010,07,16,14,28,16.30
2010,07,16,14,29,16.30
2010,07,16,14,30,16.30
2010,07,16,14,31,16.40
2010,07,16,14,32,16.60
2010,07,16,14,33,16.70
2010,07,16,14,34,16.80
2010,07,16,14,35,16.80
2010,07,16,14,36,16.90
2010,07,16,14,37,16.90
2010,07,16,14,38,16.90
2010,07,16,14,39,16.80
2010,07,16,14,40,16.80
2010,07,16,14,41,16.90
2010,07,16,14,42,16.90
2010,07,16,14,43,16.90
2010,07,16,14,44,16.90
2010,07,16,14,45,16.90
2010,07,16,14,46,17.00
2010,07,16,14,47,17.00
2010,07,16,14,48,17.00
2010,07,16,14,49,16.90
2010,07,16,14,50,17.00
2010,07,16,14,51,17.00
2010,07,16,14,52,17.10
2010,07,16,14,53,17.20
2010,07,16,14,54,17.30
2010,07,16,14,55,17.40
2010,07,16,14,56,17.50
2010,07,16,14,57,17.60
2010,07,16,14,58,17.70
2010,07,16,14,59,17.60
2010,07,16,15,00,17.50
2010,07,16,15,01,17.30
2010,07,16,15,02,17.30
2010,07,16,15,03,17.40
2010,07,16,15,04,17.40
2010,07,16,15,05,17.30
2010,07,16,15,06,17.30
2010,07,16,15,07,17.30
2010,07,16,15,08,17.30
2010,07,16,15,09,17.40
2010,07,16,15,10,17.30
2010,07,16,15,11,17.20
2010,07,16,15,12,17.10
2010,07,16,15,13,17.00
2010,07,16,15,14,16.90
2010,07,16,15,15,16.80
2010,07,16,15,16,16.70
2010,07,16,15,17,16.70
2010,07,16,15,18,16.70
2010,07,16,15,19,16.80
2010,07,16,15,20,16.90
2010,07,16,15,21,17.00
2010,07,16,15,22,17.00
2010,07,16,15,23,16.90
2010,07,16,15,24,16.80
2010,07,16,15,25,16.80
2010,07,16,15,26,16.70
2010,07,16,15,27,16.70
2010,07,16,15,28,16.60
2010,07,16,15,29,16.60
2010,07,16,15,30,16.80
2010,07,16,15,31,16.90
2010,07,16,15,32,16.90
2010,07,16,15,33,16.90
2010,07,16,15,34,16.90
2010,07,16,15,35,16.80
2010,07,16,15,36,16.90
2010,07,16,15,37,16.90
2010,07,16,15,38,16.90
2010,07,16,15,39,17.00
2010,07,16,15,40,17.00
2010,07,16,15,41,17.00
2010,07,16,15,42,16.90
2010,07,16,15,43,16.90
2010,07,16,15,44,16.90
2010,07,16,15,45,16.90
2010,07,16,15,46,16.90
2010,07,16,15,47,16.80
2010,07,16,15,48,16.80
2010,07,16,15,49,16.90
2010,07,16,15,50,16.90
2010,07,16,15,51,16.80
2010,07,16,15,52,16.80
2010,07,16,15,53,16.90
2010,07,16,15,54,17.10
2010,07,16,15,55,17.20
2010,07,16,15,56,17.40
2010,07,16,15,57,17.50
2010,07,16,15,58,17.50
2010,07,16,15,59,17.60
2010,07,16,16,00,17.70
2010,07,16,16,01,17.80
2010,07,16,16,02,17.80
2010,07,16,16,03,17.70
2010,07,16,16,04,17.70
2010,07,16,16,05,17.70
2010,07,16,16,06,17.70
2010,07,16,16,07,17.70
2010,07,16,16,08,17.70
2010,07,16,16,09,17.70
2010,07,16,16,10,17.70
2010,07,16,16,11,17.90
2010,07,16,16,12,18.00
2010,07,16,16,13,18.10
2010,07,16,16,14,18.10
2010,07,16,16,15,18.20
2010,07,16,16,16,18.30
2010,07,16,16,17,18.40
2010,07,16,16,18,18.40
2010,07,16,16,19,18.30
2010,07,16,16,20,18.30
2010,07,16,16,21,18.30
2010,07,16,16,22,18.20
2010,07,16,16,23,18.20
2010,07,16,16,24,18.20
2010,07,16,16,25,18.20
2010,07,16,16,26,18.30
2010,07,16,16,27,18.30
2010,07,16,16,28,18.30
2010,07,16,16,29,18.20
2010,07,16,16,30,18.20
2010,07,16,16,31,18.00
2010,07,16,16,32,17.90
2010,07,16,16,33,17.90
2010,07,16,16,34,17.90
2010,07,16,16,35,18.00
2010,07,16,16,36,18.00
2010,07,16,16,37,18.10
2010,07,16,16,38,18.20
2010,07,16,16,39,18.10
2010,07,16,16,40,18.10
2010,07,16,16,41,18.00
2010,07,16,16,42,18.00
2010,07,16,16,43,17.90
2010,07,16,16,44,17.90
2010,07,16,16,45,17.80
2010,07,16,16,46,17.70
2010,07,16,16,47,17.70
2010,07,16,16,48,17.70
2010,07,16,16,49,17.60
2010,07,16,16,50,17.50
2010,07,16,16,51,17.40
2010,07,16,16,52,17.40
2010,07,16,16,53,17.40
2010,07,16,16,54,17.40
2010,07,16,16,55,17.40
2010,07,16,16,56,17.40
2010,07,16,16,57,17.40
2010,07,16,16,58,17.30
2010,07,16,16,59,17.20
2010,07,16,17,00,17.10
2010,07,16,17,01,17.00
2010,07,16,17,02,17.00
2010,07,16,17,03,17.00
2010,07,16,17,04,16.90
2010,07,16,17,05,16.90
2010,07,16,17,06,17.00
2010,07,16,17,07,17.20
2010,07,16,17,08,17.30
2010,07,16,17,09,17.40
2010,07,16,17,10,17.60
2010,07,16,17,11,17.70
2010,07,16,17,12,17.70
2010,07,16,17,13,17.70
2010,07,16,17,14,17.50
2010,07,16,17,15,17.40
2010,07,16,17,16,17.20
2010,07,16,17,17,17.10
2010,07,16,17,18,16.90
2010,07,16,17,19,16.80
2010,07,16,17,20,16.90
2010,07,16,17,21,16.90
2010,07,16,17,22,17.00
2010,07,16,17,23,17.10
2010,07,16,17,24,17.20
2010,07,16,17,25,17.20
2010,07,16,17,26,17.10